Content
SEND FEEDBACK

Daily
Averages
Monthly
Summary
United States of America

VANCOUVER, WASHINGTON


Home > North America > United States > Washington
Elevation: 10 feet     Latitude: 45 38N     Longitude: 122 41W

WEATHER
 
SELECT A DAY
Number of Records: 193,694;   Date Range: 9/18/96 - 12/19/14
 
SHARE

PRINT THIS DATA

[ ← Previous Day ]
WEATHER ALMANAC - FEBRUARY 13, 2013
[ Next Day → ]
[ °C ]   °F
Weather ElementAverageHighLow
Temperature47.9 °F52 °F (2:53 pm)41 °F (11:53 pm)
Dewpoint41.6 °F44.6 °F (8:38 am)37 °F (4:53 pm)
Humidity79.6 %93 % (9:03 am)59 % (4:53 pm)
Barometer30.47 in30.52 in (9:53 pm)30.42 in (4:53 am)
Wind Speed2.6 mph5.8 mph (2:53 am)
Weather ElementAverage
Visibility8 mi
Wind DirectionSSE (141.6 °)

Weather ElementTotal
Precipitation0.07 in
Heating Degree Days18.5 (Base 65)
Averaged from 32 records on February 13, 2013
WEATHER CONDITIONS BREAKOUT
WIND DIRECTION BREAKOUT
WEATHER BY HOUR - FEBRUARY 13, 2013
[ °C ]   °F
Local TimeTemperatureDewpointHumidityBarometerVisibilityWind DirectionWind SpeedGust SpeedPrecipitationEventsConditions
1:53 AM48.9 °F42.1 °F77 %30.44 in10.0 miSSW (210°)4.6 mphOvercast
2:53 AM48.9 °F43.0 °F80 %30.44 in10.0 miSouth (190°)5.8 mphOvercast
3:53 AM48.0 °F43.0 °F83 %30.43 in10.0 miESE (120°)3.5 mphOvercast
4:53 AM48.9 °F43.0 °F80 %30.42 in10.0 miSW (220°)4.6 mphOvercast
5:53 AM48.0 °F43.0 °F83 %30.43 in10.0 miCalmOvercast
6:53 AM48.0 °F43.0 °F83 %30.43 in10.0 miVariable3.5 mphOvercast
7:53 AM48.0 °F43.0 °F83 %30.44 in10.0 miWSW (250°)4.6 mphOvercast
8:38 AM48.2 °F44.6 °F87 %30.45 in10.0 miWNW (290°)3.5 mphOvercast
8:53 AM48.0 °F44.1 °F86 %30.46 in8.0 miNW (320°)5.8 mphOvercast
9:03 AM46.4 °F44.6 °F93 %30.46 in1.8 miNNW (330°)5.8 mph0.00 inRainLight Rain
9:19 AM46.4 °F44.6 °F93 %30.47 in1.2 miVariable4.6 mph0.01 inRainLight Rain
9:33 AM46.4 °F44.6 °F93 %30.47 in2.0 miNNW (340°)3.5 mph0.01 inRainLight Rain
9:49 AM46.4 °F44.6 °F93 %30.48 in5.0 miCalm0.01 inOvercast
9:53 AM46.9 °F44.1 °F90 %30.48 in6.0 miCalm0.01 inOvercast
10:22 AM46.4 °F42.8 °F87 %30.48 in2.0 miNW (320°)3.5 mph0.00 inRainLight Rain
10:35 AM46.4 °F42.8 °F87 %30.48 in1.5 miNW (320°)3.5 mph0.01 inRainLight Rain
10:45 AM46.4 °F42.8 °F87 %30.48 in3.0 miCalm0.01 inRainLight Rain
10:53 AM46.9 °F43.0 °F86 %30.48 in5.0 miNorth (350°)3.5 mph0.01 inOvercast
11:53 AM48.0 °F42.1 °F80 %30.48 in10.0 miNNW (330°)4.6 mphOvercast
12:53 PM48.9 °F43.0 °F80 %30.47 in10.0 miCalmOvercast
1:53 PM50.0 °F42.1 °F74 %30.46 in10.0 miNorth (350°)4.6 mphOvercast
2:53 PM52.0 °F42.1 °F69 %30.45 in10.0 miWNW (290°)5.8 mphMostly Cloudy
3:07 PM51.8 °F39.2 °F62 %30.44 in10.0 miVariable3.5 mphOvercast
3:53 PM51.1 °F37.9 °F61 %30.45 in10.0 miWNW (300°)3.5 mphOvercast
4:53 PM51.1 °F37.0 °F59 %30.45 in10.0 miCalmOvercast
5:53 PM50.0 °F37.9 °F63 %30.46 in10.0 miCalmOvercast
6:53 PM50.0 °F37.9 °F63 %30.47 in10.0 miCalmMostly Cloudy
7:53 PM48.0 °F37.9 °F68 %30.48 in10.0 miCalmOvercast
8:53 PM46.9 °F39.0 °F74 %30.50 in10.0 miCalmOvercast
9:53 PM46.0 °F37.9 °F73 %30.52 in10.0 miCalmMostly Cloudy
10:53 PM43.0 °F37.9 °F82 %30.52 in10.0 miCalmOvercast
11:53 PM41.0 °F37.9 °F89 %30.52 in10.0 miCalmOvercast
Hourly data recorded from KVUO, located miles away from Vancouver, Washington







STORIES FROM OUR PARTNERS